Time,TemperatureF,DewpointF,PressureIn,WindDirection,WindDirectionDegrees,WindSpeedMPH,WindSpeedGustMPH,Humidity,HourlyPrecipIn,Conditions,Clouds,dailyrainin,SoftwareType,DateUTC
2013-09-13 00:00:00,66.7,65.2,29.70,North,360,0.0,0.0,95,0.00,,,0.00,Wunderground v.1.13,2013-09-13 04:00:00,
2013-09-13 00:05:00,66.6,65.4,29.69,North,360,0.0,0.0,96,0.00,,,0.00,Wunderground v.1.13,2013-09-13 04:05:00,
2013-09-13 00:10:00,66.6,65.4,29.69,North,360,0.0,0.0,96,0.00,,,0.00,Wunderground v.1.13,2013-09-13 04:10:00,
2013-09-13 00:15:00,66.5,65.3,29.69,North,360,0.0,0.0,96,0.00,,,0.00,Wunderground v.1.13,2013-09-13 04:15:00,
2013-09-13 00:20:00,66.5,65.3,29.69,North,360,0.0,0.0,96,0.00,,,0.00,Wunderground v.1.13,2013-09-13 04:20:00,
2013-09-13 00:30:00,66.4,65.2,29.69,North,360,0.0,0.0,96,0.00,,,0.01,Wunderground v.1.13,2013-09-13 04:30:00,
2013-09-13 00:35:00,66.4,65.2,29.68,North,360,0.0,0.0,96,0.00,,,0.01,Wunderground v.1.13,2013-09-13 04:35:00,
2013-09-13 00:40:00,66.4,65.2,29.69,North,360,0.0,0.0,96,0.00,,,0.01,Wunderground v.1.13,2013-09-13 04:40:00,
2013-09-13 00:45:00,66.4,65.2,29.69,North,360,0.0,0.0,96,0.00,,,0.01,Wunderground v.1.13,2013-09-13 04:45:00,
2013-09-13 00:55:00,66.3,65.1,29.69,North,360,0.0,0.0,96,0.00,,,0.01,Wunderground v.1.13,2013-09-13 04:55:00,
2013-09-13 01:00:00,66.3,65.1,29.68,North,360,0.0,0.0,96,0.00,,,0.01,Wunderground v.1.13,2013-09-13 05:00:00,
2013-09-13 01:05:00,66.3,65.1,29.68,N/A,-737280,0.0,0.0,96,0.01,,,0.01,Wunderground v.1.13,2013-09-13 05:05:00,
2013-09-13 01:15:00,66.2,65.0,29.69,North,360,0.0,0.0,96,0.00,,,0.01,Wunderground v.1.13,2013-09-13 05:15:00,
2013-09-13 01:25:00,66.2,65.3,29.68,North,360,0.0,0.0,97,0.00,,,0.01,Wunderground v.1.13,2013-09-13 05:25:00,
2013-09-13 01:30:00,66.2,65.3,29.68,North,360,0.0,0.0,97,0.00,,,0.01,Wunderground v.1.13,2013-09-13 05:30:00,
2013-09-13 01:35:00,66.3,65.4,29.68,North,360,0.0,0.0,97,0.00,,,0.01,Wunderground v.1.13,2013-09-13 05:35:00,
2013-09-13 01:40:00,66.3,65.4,29.68,North,360,0.0,0.0,97,0.00,,,0.01,Wunderground v.1.13,2013-09-13 05:40:00,
2013-09-13 01:50:00,66.4,65.5,29.68,North,360,0.0,0.0,97,0.00,,,0.01,Wunderground v.1.13,2013-09-13 05:50:00,
2013-09-13 01:55:00,66.4,65.5,29.68,North,360,0.0,0.0,97,0.00,,,0.01,Wunderground v.1.13,2013-09-13 05:55:00,
2013-09-13 02:00:00,66.5,65.6,29.68,North,360,0.0,0.0,97,0.00,,,0.01,Wunderground v.1.13,2013-09-13 06:00:00,
2013-09-13 02:05:00,66.5,65.6,29.67,North,360,0.0,0.0,97,0.00,,,0.01,Wunderground v.1.13,2013-09-13 06:05:00,
2013-09-13 02:15:00,66.6,65.7,29.67,North,360,0.0,0.0,97,0.00,,,0.01,Wunderground v.1.13,2013-09-13 06:15:00,
2013-09-13 02:20:00,66.6,65.7,29.66,North,360,0.0,0.0,97,0.00,,,0.01,Wunderground v.1.13,2013-09-13 06:20:00,
2013-09-13 02:25:00,66.6,65.7,29.66,North,360,0.0,0.0,97,0.00,,,0.01,Wunderground v.1.13,2013-09-13 06:25:00,
2013-09-13 02:30:00,66.7,65.8,29.66,North,360,0.0,0.0,97,0.00,,,0.01,Wunderground v.1.13,2013-09-13 06:30:00,
2013-09-13 02:35:00,66.7,65.8,29.66,North,360,0.0,0.0,97,0.00,,,0.01,Wunderground v.1.13,2013-09-13 06:35:00,
2013-09-13 02:45:00,66.7,65.8,29.65,North,360,0.0,0.0,97,0.00,,,0.01,Wunderground v.1.13,2013-09-13 06:45:00,
2013-09-13 02:50:00,66.7,65.8,29.65,North,360,0.0,0.0,97,0.00,,,0.01,Wunderground v.1.13,2013-09-13 06:50:00,
2013-09-13 02:55:00,66.7,65.8,29.65,North,360,0.0,0.0,97,0.00,,,0.01,Wunderground v.1.13,2013-09-13 06:55:00,
2013-09-13 03:05:00,66.7,65.8,29.65,North,360,0.0,0.0,97,0.00,,,0.01,Wunderground v.1.13,2013-09-13 07:05:00,
2013-09-13 03:10:00,66.7,65.8,29.64,North,360,0.0,0.0,97,0.00,,,0.01,Wunderground v.1.13,2013-09-13 07:10:00,
2013-09-13 03:15:00,66.7,65.8,29.64,North,360,0.0,0.0,97,0.00,,,0.01,Wunderground v.1.13,2013-09-13 07:15:00,
2013-09-13 03:20:00,66.7,65.8,29.64,North,360,0.0,0.0,97,0.00,,,0.01,Wunderground v.1.13,2013-09-13 07:20:00,
2013-09-13 03:25:00,66.7,65.8,29.64,North,360,0.0,0.0,97,0.00,,,0.01,Wunderground v.1.13,2013-09-13 07:25:00,
2013-09-13 03:35:00,66.6,65.7,29.63,North,360,0.0,0.0,97,0.00,,,0.01,Wunderground v.1.13,2013-09-13 07:35:00,
2013-09-13 03:40:00,66.6,65.7,29.63,North,360,0.0,0.0,97,0.00,,,0.01,Wunderground v.1.13,2013-09-13 07:40:00,
2013-09-13 03:45:00,66.6,65.7,29.63,North,360,0.0,0.0,97,0.00,,,0.01,Wunderground v.1.13,2013-09-13 07:45:00,
2013-09-13 03:50:00,66.5,65.6,29.63,North,360,0.0,0.0,97,0.00,,,0.01,Wunderground v.1.13,2013-09-13 07:50:00,
2013-09-13 04:00:00,66.5,65.6,29.63,North,360,0.0,0.0,97,0.00,,,0.01,Wunderground v.1.13,2013-09-13 08:00:00,
2013-09-13 04:05:00,66.5,65.6,29.64,North,360,0.0,0.0,97,0.00,,,0.01,Wunderground v.1.13,2013-09-13 08:05:00,
2013-09-13 04:10:00,66.5,65.6,29.63,North,360,0.0,0.0,97,0.00,,,0.01,Wunderground v.1.13,2013-09-13 08:10:00,
2013-09-13 04:20:00,66.5,65.6,29.63,North,360,0.0,0.0,97,0.00,,,0.01,Wunderground v.1.13,2013-09-13 08:20:00,
2013-09-13 04:25:00,66.5,65.6,29.63,North,360,0.0,0.0,97,0.00,,,0.01,Wunderground v.1.13,2013-09-13 08:25:00,
2013-09-13 04:30:00,66.5,65.6,29.64,North,360,0.0,0.0,97,0.00,,,0.01,Wunderground v.1.13,2013-09-13 08:30:00,
2013-09-13 04:35:00,66.5,65.6,29.63,North,360,0.0,0.0,97,0.00,,,0.01,Wunderground v.1.13,2013-09-13 08:35:00,
2013-09-13 04:40:00,66.5,65.6,29.63,North,360,0.0,0.0,97,0.00,,,0.01,Wunderground v.1.13,2013-09-13 08:40:00,
2013-09-13 04:50:00,66.5,65.6,29.63,North,360,0.0,0.0,97,0.00,,,0.01,Wunderground v.1.13,2013-09-13 08:50:00,
2013-09-13 04:55:00,66.5,65.6,29.63,North,360,0.0,0.0,97,0.00,,,0.01,Wunderground v.1.13,2013-09-13 08:55:00,
2013-09-13 05:00:00,66.5,65.6,29.63,North,360,0.0,0.0,97,0.00,,,0.01,Wunderground v.1.13,2013-09-13 09:00:00,
2013-09-13 05:05:00,66.4,65.5,29.64,North,360,0.0,0.0,97,0.00,,,0.01,Wunderground v.1.13,2013-09-13 09:05:00,
2013-09-13 05:15:00,66.4,65.5,29.64,North,360,0.0,0.0,97,0.00,,,0.01,Wunderground v.1.13,2013-09-13 09:15:00,
2013-09-13 05:20:00,66.4,65.5,29.64,North,360,0.0,0.0,97,0.00,,,0.01,Wunderground v.1.13,2013-09-13 09:20:00,
2013-09-13 05:25:00,66.4,65.5,29.64,North,360,0.0,0.0,97,0.00,,,0.01,Wunderground v.1.13,2013-09-13 09:25:00,
2013-09-13 05:30:00,66.4,65.5,29.64,North,360,0.0,0.0,97,0.00,,,0.01,Wunderground v.1.13,2013-09-13 09:30:00,
2013-09-13 05:35:00,66.4,65.5,29.64,North,360,0.0,0.0,97,0.00,,,0.01,Wunderground v.1.13,2013-09-13 09:35:00,
2013-09-13 05:45:00,66.3,65.4,29.64,North,360,0.0,0.0,97,0.00,,,0.01,Wunderground v.1.13,2013-09-13 09:45:00,
2013-09-13 05:50:00,66.3,65.4,29.64,North,360,0.0,0.0,97,0.00,,,0.01,Wunderground v.1.13,2013-09-13 09:50:00,
2013-09-13 05:55:00,66.3,65.4,29.64,North,360,0.0,0.0,97,0.00,,,0.01,Wunderground v.1.13,2013-09-13 09:55:00,
2013-09-13 06:05:00,66.2,65.3,29.64,North,360,0.0,0.0,97,0.00,,,0.01,Wunderground v.1.13,2013-09-13 10:05:00,
2013-09-13 06:10:00,66.2,65.3,29.64,North,360,0.0,0.0,97,0.00,,,0.01,Wunderground v.1.13,2013-09-13 10:10:00,
2013-09-13 06:15:00,66.2,65.3,29.65,North,360,0.0,0.0,97,0.00,,,0.01,Wunderground v.1.13,2013-09-13 10:15:00,
2013-09-13 06:20:00,66.2,65.3,29.65,North,360,0.0,0.0,97,0.00,,,0.01,Wunderground v.1.13,2013-09-13 10:20:00,
2013-09-13 06:25:00,66.1,65.2,29.65,North,360,0.0,0.0,97,0.00,,,0.01,Wunderground v.1.13,2013-09-13 10:25:00,
2013-09-13 06:35:00,66.1,65.2,29.65,North,360,0.0,0.0,97,0.00,,,0.01,Wunderground v.1.13,2013-09-13 10:35:00,
2013-09-13 06:40:00,66.0,65.1,29.66,North,360,0.0,0.0,97,0.00,,,0.01,Wunderground v.1.13,2013-09-13 10:40:00,
2013-09-13 06:45:00,66.0,65.1,29.66,North,360,0.0,0.0,97,0.00,,,0.02,Wunderground v.1.13,2013-09-13 10:45:00,
2013-09-13 06:50:00,66.0,65.1,29.65,North,360,0.0,0.0,97,0.00,,,0.02,Wunderground v.1.13,2013-09-13 10:50:00,
2013-09-13 06:55:00,65.9,65.0,29.65,North,360,0.0,0.0,97,0.14,,,0.04,Wunderground v.1.13,2013-09-13 10:55:00,
2013-09-13 07:05:00,65.9,65.0,29.65,North,360,0.0,0.0,97,0.06,,,0.04,Wunderground v.1.13,2013-09-13 11:05:00,
2013-09-13 07:10:00,65.9,65.0,29.65,North,360,0.0,0.0,97,0.04,,,0.04,Wunderground v.1.13,2013-09-13 11:10:00,
2013-09-13 07:15:00,65.9,65.0,29.65,North,360,0.0,0.0,97,0.04,,,0.05,Wunderground v.1.13,2013-09-13 11:15:00,
2013-09-13 07:25:00,65.9,65.0,29.65,North,360,0.0,0.0,97,0.04,,,0.05,Wunderground v.1.13,2013-09-13 11:25:00,
2013-09-13 07:30:00,65.8,64.9,29.65,North,360,0.0,0.0,97,0.04,,,0.06,Wunderground v.1.13,2013-09-13 11:30:00,
2013-09-13 07:35:00,65.8,64.9,29.65,North,360,0.0,0.0,97,0.04,,,0.06,Wunderground v.1.13,2013-09-13 11:35:00,
2013-09-13 07:45:00,65.8,64.9,29.65,North,360,0.0,0.0,97,0.00,,,0.06,Wunderground v.1.13,2013-09-13 11:45:00,
2013-09-13 07:50:00,65.8,64.9,29.65,North,360,0.0,0.0,97,0.00,,,0.06,Wunderground v.1.13,2013-09-13 11:50:00,
2013-09-13 07:55:00,65.8,64.9,29.65,North,360,0.0,0.0,97,0.00,,,0.06,Wunderground v.1.13,2013-09-13 11:55:00,
2013-09-13 08:00:00,65.8,64.9,29.65,North,360,0.0,0.0,97,0.00,,,0.06,Wunderground v.1.13,2013-09-13 12:00:00,
2013-09-13 08:05:00,65.8,64.9,29.65,North,360,0.0,0.0,97,0.00,,,0.06,Wunderground v.1.13,2013-09-13 12:05:00,
2013-09-13 08:15:00,66.0,65.4,29.64,North,360,0.0,0.0,98,0.00,,,0.06,Wunderground v.1.13,2013-09-13 12:15:00,
2013-09-13 08:20:00,66.1,65.2,29.65,North,360,0.0,0.0,97,0.00,,,0.06,Wunderground v.1.13,2013-09-13 12:20:00,
2013-09-13 08:25:00,66.3,65.7,29.65,North,360,0.0,0.0,98,0.00,,,0.06,Wunderground v.1.13,2013-09-13 12:25:00,
2013-09-13 08:30:00,66.3,65.4,29.65,North,360,0.0,0.0,97,0.00,,,0.06,Wunderground v.1.13,2013-09-13 12:30:00,
2013-09-13 08:35:00,66.3,65.4,29.65,North,360,0.0,0.0,97,0.00,,,0.06,Wunderground v.1.13,2013-09-13 12:35:00,
2013-09-13 08:45:00,66.5,65.6,29.65,North,360,0.0,0.0,97,0.00,,,0.06,Wunderground v.1.13,2013-09-13 12:45:00,
2013-09-13 08:50:00,66.6,66.0,29.65,North,360,0.0,0.0,98,0.00,,,0.06,Wunderground v.1.13,2013-09-13 12:50:00,
2013-09-13 08:55:00,66.5,65.6,29.65,North,360,0.0,0.0,97,0.00,,,0.06,Wunderground v.1.13,2013-09-13 12:55:00,
2013-09-13 09:05:00,66.7,66.1,29.65,North,360,0.0,0.0,98,0.00,,,0.06,Wunderground v.1.13,2013-09-13 13:05:00,
2013-09-13 09:10:00,66.9,66.3,29.65,North,360,0.0,0.0,98,0.00,,,0.06,Wunderground v.1.13,2013-09-13 13:10:00,
2013-09-13 09:15:00,66.9,66.3,29.65,North,360,0.0,0.0,98,0.00,,,0.06,Wunderground v.1.13,2013-09-13 13:15:00,
2013-09-13 09:20:00,67.2,66.6,29.65,North,360,0.0,0.0,98,0.00,,,0.06,Wunderground v.1.13,2013-09-13 13:20:00,
2013-09-13 09:25:00,67.4,66.8,29.65,North,360,0.0,0.0,98,0.00,,,0.06,Wunderground v.1.13,2013-09-13 13:25:00,
2013-09-13 09:35:00,67.3,66.7,29.65,North,360,0.0,0.0,98,0.00,,,0.06,Wunderground v.1.13,2013-09-13 13:35:00,
2013-09-13 09:40:00,67.4,66.8,29.65,North,360,0.0,0.0,98,0.00,,,0.06,Wunderground v.1.13,2013-09-13 13:40:00,
2013-09-13 09:45:00,67.5,66.6,29.65,North,360,0.0,0.0,97,0.00,,,0.06,Wunderground v.1.13,2013-09-13 13:45:00,
2013-09-13 09:50:00,67.7,66.8,29.65,North,360,0.0,0.0,97,0.00,,,0.06,Wunderground v.1.13,2013-09-13 13:50:00,
2013-09-13 10:00:00,67.6,66.7,29.65,North,360,0.0,0.0,97,0.00,,,0.06,Wunderground v.1.13,2013-09-13 14:00:00,
2013-09-13 10:05:00,67.4,66.2,29.64,North,360,0.0,0.0,96,0.00,,,0.06,Wunderground v.1.13,2013-09-13 14:05:00,
2013-09-13 10:10:00,67.5,66.3,29.65,North,360,0.0,0.0,96,0.00,,,0.06,Wunderground v.1.13,2013-09-13 14:10:00,
2013-09-13 10:15:00,67.4,66.2,29.65,North,360,0.0,0.0,96,0.00,,,0.06,Wunderground v.1.13,2013-09-13 14:15:00,
2013-09-13 10:25:00,68.5,67.6,29.64,North,360,0.0,0.0,97,0.00,,,0.06,Wunderground v.1.13,2013-09-13 14:25:00,
2013-09-13 10:30:00,69.8,68.6,29.64,North,360,0.0,0.0,96,0.00,,,0.06,Wunderground v.1.13,2013-09-13 14:30:00,
2013-09-13 10:35:00,70.9,69.1,29.64,North,360,0.0,0.0,94,0.00,,,0.06,Wunderground v.1.13,2013-09-13 14:35:00,
2013-09-13 10:40:00,70.0,67.6,29.64,North,360,0.0,0.0,92,0.00,,,0.06,Wunderground v.1.13,2013-09-13 14:40:00,
2013-09-13 10:45:00,69.4,67.3,29.65,North,360,0.0,0.0,93,0.00,,,0.06,Wunderground v.1.13,2013-09-13 14:45:00,
2013-09-13 10:55:00,68.9,67.1,29.64,North,360,0.0,0.0,94,0.00,,,0.06,Wunderground v.1.13,2013-09-13 14:55:00,
2013-09-13 11:00:00,69.0,67.2,29.64,North,360,0.0,0.0,94,0.00,,,0.06,Wunderground v.1.13,2013-09-13 15:00:00,
2013-09-13 11:05:00,69.4,67.6,29.64,North,360,0.0,0.0,94,0.00,,,0.06,Wunderground v.1.13,2013-09-13 15:05:00,
2013-09-13 11:10:00,69.5,67.1,29.64,North,360,0.0,0.0,92,0.00,,,0.06,Wunderground v.1.13,2013-09-13 15:10:00,
2013-09-13 11:20:00,70.2,67.4,29.64,North,360,0.0,0.0,91,0.00,,,0.06,Wunderground v.1.13,2013-09-13 15:20:00,
2013-09-13 11:25:00,71.2,68.8,29.64,North,360,0.0,0.0,92,0.00,,,0.06,Wunderground v.1.13,2013-09-13 15:25:00,
2013-09-13 11:30:00,72.4,69.0,29.64,North,32767,0.0,0.0,89,0.00,,,0.06,Wunderground v.1.13,2013-09-13 15:30:00,
2013-09-13 11:35:00,72.8,68.4,29.64,North,32767,0.0,0.0,86,0.00,,,0.06,Wunderground v.1.13,2013-09-13 15:35:00,
2013-09-13 11:45:00,74.0,68.5,29.64,North,360,0.0,0.0,83,0.00,,,0.06,Wunderground v.1.13,2013-09-13 15:45:00,
2013-09-13 11:50:00,74.6,68.7,29.63,North,32767,0.0,0.0,82,0.00,,,0.06,Wunderground v.1.13,2013-09-13 15:50:00,
2013-09-13 11:55:00,74.2,68.0,29.63,North,32767,0.0,0.0,81,0.00,,,0.06,Wunderground v.1.13,2013-09-13 15:55:00,
2013-09-13 12:05:00,75.0,68.8,29.63,North,32767,0.0,0.0,81,0.00,,,0.06,Wunderground v.1.13,2013-09-13 16:05:00,
2013-09-13 12:10:00,75.8,69.2,29.63,North,360,0.0,0.0,80,0.00,,,0.06,Wunderground v.1.13,2013-09-13 16:10:00,
2013-09-13 12:15:00,75.4,68.4,29.62,North,360,0.0,0.0,79,0.00,,,0.06,Wunderground v.1.13,2013-09-13 16:15:00,
2013-09-13 12:20:00,74.4,68.2,29.62,North,32767,0.0,0.0,81,0.00,,,0.06,Wunderground v.1.13,2013-09-13 16:20:00,
2013-09-13 12:25:00,74.8,68.6,29.62,North,32767,0.0,0.0,81,0.00,,,0.06,Wunderground v.1.13,2013-09-13 16:25:00,
2013-09-13 12:35:00,76.2,67.7,29.61,North,32767,0.0,0.0,75,0.00,,,0.06,Wunderground v.1.13,2013-09-13 16:35:00,
2013-09-13 12:40:00,75.8,66.9,29.61,North,32767,0.0,0.0,74,0.00,,,0.06,Wunderground v.1.13,2013-09-13 16:40:00,
2013-09-13 12:45:00,75.2,67.1,29.61,North,32767,0.0,0.0,76,0.00,,,0.06,Wunderground v.1.13,2013-09-13 16:45:00,
2013-09-13 12:50:00,75.7,66.8,29.61,North,32767,0.0,0.0,74,0.00,,,0.06,Wunderground v.1.13,2013-09-13 16:50:00,
2013-09-13 13:00:00,74.5,67.2,29.61,North,360,0.0,0.0,78,0.00,,,0.06,Wunderground v.1.13,2013-09-13 17:00:00,
2013-09-13 13:05:00,74.1,67.9,29.62,North,32767,0.0,0.0,81,0.00,,,0.06,Wunderground v.1.13,2013-09-13 17:05:00,
2013-09-13 13:10:00,73.2,65.6,29.62,North,32767,0.0,0.0,77,0.00,,,0.06,Wunderground v.1.13,2013-09-13 17:10:00,
2013-09-13 13:20:00,73.9,65.1,29.61,North,360,0.0,0.0,74,0.00,,,0.06,Wunderground v.1.13,2013-09-13 17:20:00,
2013-09-13 13:25:00,74.2,66.9,29.61,North,32767,0.0,0.0,78,0.00,,,0.06,Wunderground v.1.13,2013-09-13 17:25:00,
2013-09-13 13:30:00,73.4,66.9,29.61,North,32767,0.0,0.0,80,0.00,,,0.06,Wunderground v.1.13,2013-09-13 17:30:00,
2013-09-13 13:35:00,74.2,66.9,29.61,North,360,0.0,0.0,78,0.00,,,0.06,Wunderground v.1.13,2013-09-13 17:35:00,
2013-09-13 13:45:00,76.2,66.5,29.61,North,32767,0.0,0.0,72,0.00,,,0.06,Wunderground v.1.13,2013-09-13 17:45:00,
2013-09-13 13:50:00,75.3,67.2,29.61,North,360,0.0,0.0,76,0.00,,,0.06,Wunderground v.1.13,2013-09-13 17:50:00,
2013-09-13 13:55:00,76.1,66.0,29.61,North,32767,0.0,0.0,71,0.00,,,0.06,Wunderground v.1.13,2013-09-13 17:55:00,
2013-09-13 14:00:00,77.3,67.2,29.60,North,360,0.0,0.0,71,0.00,,,0.06,Wunderground v.1.13,2013-09-13 18:00:00,
2013-09-13 14:10:00,77.7,66.3,29.60,North,32767,0.0,0.0,68,0.00,,,0.06,Wunderground v.1.13,2013-09-13 18:10:00,
2013-09-13 14:15:00,76.9,66.0,29.60,North,32767,0.0,0.0,69,0.00,,,0.06,Wunderground v.1.13,2013-09-13 18:15:00,
2013-09-13 14:20:00,76.9,65.5,29.60,North,360,0.0,0.0,68,0.00,,,0.06,Wunderground v.1.13,2013-09-13 18:20:00,
2013-09-13 14:25:00,77.1,64.9,29.60,North,32767,0.0,0.0,66,0.00,,,0.06,Wunderground v.1.13,2013-09-13 18:25:00,
2013-09-13 14:35:00,77.3,65.5,29.60,North,32767,0.0,0.0,67,0.00,,,0.06,Wunderground v.1.13,2013-09-13 18:35:00,
2013-09-13 14:40:00,77.5,66.5,29.61,North,32767,0.0,0.0,69,0.00,,,0.06,Wunderground v.1.13,2013-09-13 18:40:00,
2013-09-13 14:45:00,76.5,65.1,29.61,North,360,0.0,0.0,68,0.00,,,0.06,Wunderground v.1.13,2013-09-13 18:45:00,
2013-09-13 14:50:00,75.8,65.3,29.61,North,32767,0.0,0.0,70,0.00,,,0.06,Wunderground v.1.13,2013-09-13 18:50:00,
2013-09-13 15:00:00,75.5,66.6,29.61,North,360,0.0,0.0,74,0.00,,,0.06,Wunderground v.1.13,2013-09-13 19:00:00,
2013-09-13 15:05:00,75.2,65.9,29.61,North,360,0.0,0.0,73,0.00,,,0.06,Wunderground v.1.13,2013-09-13 19:05:00,
2013-09-13 15:10:00,75.7,66.4,29.61,North,360,0.0,0.0,73,0.00,,,0.06,Wunderground v.1.13,2013-09-13 19:10:00,
2013-09-13 15:15:00,76.0,66.3,29.62,North,360,0.0,0.0,72,0.00,,,0.06,Wunderground v.1.13,2013-09-13 19:15:00,
2013-09-13 15:20:00,74.9,66.1,29.62,North,32767,0.0,0.0,74,0.00,,,0.06,Wunderground v.1.13,2013-09-13 19:20:00,
2013-09-13 15:30:00,74.0,67.1,29.62,North,360,0.0,0.0,79,0.00,,,0.06,Wunderground v.1.13,2013-09-13 19:30:00,
2013-09-13 15:35:00,73.9,66.6,29.62,North,32767,0.0,0.0,78,0.00,,,0.06,Wunderground v.1.13,2013-09-13 19:35:00,
2013-09-13 15:40:00,73.8,66.9,29.62,North,32767,0.0,0.0,79,0.00,,,0.06,Wunderground v.1.13,2013-09-13 19:40:00,
2013-09-13 15:50:00,73.3,66.4,29.62,North,32767,0.0,0.0,79,0.00,,,0.06,Wunderground v.1.13,2013-09-13 19:50:00,
2013-09-13 15:55:00,73.0,65.7,29.63,North,32767,0.0,0.0,78,0.00,,,0.06,Wunderground v.1.13,2013-09-13 19:55:00,
2013-09-13 16:00:00,72.8,65.2,29.63,North,32767,0.0,0.0,77,0.00,,,0.06,Wunderground v.1.13,2013-09-13 20:00:00,
2013-09-13 16:05:00,72.4,65.2,29.63,North,360,0.0,0.0,78,0.00,,,0.06,Wunderground v.1.13,2013-09-13 20:05:00,
2013-09-13 16:15:00,71.6,64.4,29.64,North,32767,0.0,0.0,78,0.00,,,0.06,Wunderground v.1.13,2013-09-13 20:15:00,
2013-09-13 16:20:00,71.2,64.4,29.63,North,32767,0.0,0.0,79,0.00,,,0.06,Wunderground v.1.13,2013-09-13 20:20:00,
2013-09-13 16:25:00,70.8,64.7,29.64,North,32767,0.0,0.0,81,0.00,,,0.06,Wunderground v.1.13,2013-09-13 20:25:00,
2013-09-13 16:30:00,70.7,63.5,29.64,North,32767,0.0,0.0,78,0.00,,,0.06,Wunderground v.1.13,2013-09-13 20:30:00,
2013-09-13 16:40:00,70.1,64.0,29.65,North,32767,0.0,0.0,81,0.00,,,0.06,Wunderground v.1.13,2013-09-13 20:40:00,
2013-09-13 16:45:00,70.2,64.4,29.65,North,32767,0.0,0.0,82,0.00,,,0.06,Wunderground v.1.13,2013-09-13 20:45:00,
2013-09-13 16:50:00,71.8,64.6,29.64,North,32767,0.0,0.0,78,0.00,,,0.06,Wunderground v.1.13,2013-09-13 20:50:00,
2013-09-13 17:00:00,71.5,64.3,29.65,North,32767,0.0,0.0,78,0.00,,,0.06,Wunderground v.1.13,2013-09-13 21:00:00,
2013-09-13 17:05:00,71.1,63.5,29.65,North,360,0.0,0.0,77,0.00,,,0.06,Wunderground v.1.13,2013-09-13 21:05:00,
2013-09-13 17:10:00,70.5,63.3,29.65,North,32767,0.0,0.0,78,0.00,,,0.06,Wunderground v.1.13,2013-09-13 21:10:00,
2013-09-13 17:15:00,69.9,63.4,29.65,North,32767,0.0,0.0,80,0.00,,,0.06,Wunderground v.1.13,2013-09-13 21:15:00,
2013-09-13 17:20:00,69.1,62.7,29.65,North,360,0.0,0.0,80,0.00,,,0.06,Wunderground v.1.13,2013-09-13 21:20:00,
2013-09-13 17:30:00,68.5,62.8,29.66,North,360,0.0,0.0,82,0.00,,,0.06,Wunderground v.1.13,2013-09-13 21:30:00,
2013-09-13 17:35:00,68.1,62.7,29.66,North,360,0.0,0.0,83,0.00,,,0.06,Wunderground v.1.13,2013-09-13 21:35:00,
2013-09-13 17:40:00,68.3,62.9,29.66,North,32767,0.0,0.0,83,0.00,,,0.06,Wunderground v.1.13,2013-09-13 21:40:00,
2013-09-13 17:50:00,68.2,61.8,29.67,North,32767,0.0,0.0,80,0.00,,,0.06,Wunderground v.1.13,2013-09-13 21:50:00,
2013-09-13 17:55:00,67.9,61.9,29.67,North,360,0.0,0.0,81,0.00,,,0.06,Wunderground v.1.13,2013-09-13 21:55:00,
2013-09-13 18:00:00,67.8,61.8,29.67,North,32767,0.0,0.0,81,0.00,,,0.06,Wunderground v.1.13,2013-09-13 22:00:00,
2013-09-13 18:05:00,67.7,62.0,29.67,North,32767,0.0,0.0,82,0.00,,,0.06,Wunderground v.1.13,2013-09-13 22:05:00,
2013-09-13 18:15:00,67.2,61.2,29.68,North,32767,0.0,0.0,81,0.00,,,0.06,Wunderground v.1.13,2013-09-13 22:15:00,
2013-09-13 18:20:00,67.0,61.3,29.68,North,32767,0.0,0.0,82,0.00,,,0.06,Wunderground v.1.13,2013-09-13 22:20:00,
2013-09-13 18:25:00,67.0,61.7,29.68,North,360,0.0,0.0,83,0.00,,,0.06,Wunderground v.1.13,2013-09-13 22:25:00,
2013-09-13 18:30:00,67.0,61.7,29.69,North,32767,0.0,0.0,83,0.00,,,0.06,Wunderground v.1.13,2013-09-13 22:30:00,
2013-09-13 18:40:00,67.1,61.4,29.70,North,32767,0.0,0.0,82,0.00,,,0.06,Wunderground v.1.13,2013-09-13 22:40:00,
2013-09-13 18:45:00,67.1,61.4,29.70,North,360,0.0,0.0,82,0.00,,,0.06,Wunderground v.1.13,2013-09-13 22:45:00,
2013-09-13 18:50:00,67.1,61.1,29.70,North,32767,0.0,0.0,81,0.00,,,0.06,Wunderground v.1.13,2013-09-13 22:50:00,
2013-09-13 18:55:00,67.0,61.0,29.71,North,360,0.0,0.0,81,0.00,,,0.06,Wunderground v.1.13,2013-09-13 22:55:00,
2013-09-13 19:05:00,66.8,60.8,29.72,North,32767,0.0,0.0,81,0.00,,,0.06,Wunderground v.1.13,2013-09-13 23:05:00,
2013-09-13 19:10:00,66.6,60.2,29.72,North,32767,0.0,0.0,80,0.00,,,0.06,Wunderground v.1.13,2013-09-13 23:10:00,
2013-09-13 19:15:00,66.4,60.4,29.73,North,360,0.0,0.0,81,0.00,,,0.06,Wunderground v.1.13,2013-09-13 23:15:00,
2013-09-13 19:25:00,65.9,59.9,29.73,North,360,0.0,0.0,81,0.00,,,0.06,Wunderground v.1.13,2013-09-13 23:25:00,
2013-09-13 19:30:00,65.8,60.2,29.73,North,32767,0.0,0.0,82,0.00,,,0.06,Wunderground v.1.13,2013-09-13 23:30:00,
2013-09-13 19:35:00,65.5,59.9,29.73,North,32767,0.0,0.0,82,0.00,,,0.06,Wunderground v.1.13,2013-09-13 23:35:00,
2013-09-13 19:40:00,65.3,59.7,29.73,North,32767,0.0,0.0,82,0.00,,,0.06,Wunderground v.1.13,2013-09-13 23:40:00,
2013-09-13 19:50:00,64.8,59.5,29.73,North,32767,0.0,0.0,83,0.00,,,0.06,Wunderground v.1.13,2013-09-13 23:50:00,
2013-09-13 19:55:00,64.6,59.3,29.74,North,32767,0.0,0.0,83,0.00,,,0.06,Wunderground v.1.13,2013-09-13 23:55:00,
2013-09-13 20:00:00,64.4,59.1,29.74,North,32767,0.0,0.0,83,0.00,,,0.06,Wunderground v.1.13,2013-09-14 00:00:00,
2013-09-13 20:05:00,64.1,58.8,29.74,North,32767,0.0,0.0,83,0.00,,,0.06,Wunderground v.1.13,2013-09-14 00:05:00,
2013-09-13 20:10:00,63.9,59.0,29.74,North,32767,0.0,0.0,84,0.00,,,0.06,Wunderground v.1.13,2013-09-14 00:10:00,
2013-09-13 20:20:00,63.5,58.6,29.75,North,32767,0.0,0.0,84,0.00,,,0.06,Wunderground v.1.13,2013-09-14 00:20:00,
2013-09-13 20:25:00,63.3,58.4,29.75,North,32767,0.0,0.0,84,0.00,,,0.06,Wunderground v.1.13,2013-09-14 00:25:00,
2013-09-13 20:30:00,63.1,58.2,29.75,North,360,0.0,0.0,84,0.00,,,0.06,Wunderground v.1.13,2013-09-14 00:30:00,
2013-09-13 20:40:00,62.8,57.9,29.75,North,360,0.0,0.0,84,0.00,,,0.06,Wunderground v.1.13,2013-09-14 00:40:00,
2013-09-13 20:45:00,62.7,57.8,29.75,North,360,0.0,0.0,84,0.00,,,0.06,Wunderground v.1.13,2013-09-14 00:45:00,
2013-09-13 20:50:00,62.5,57.9,29.76,North,32767,0.0,0.0,85,0.00,,,0.06,Wunderground v.1.13,2013-09-14 00:50:00,
2013-09-13 20:55:00,62.4,57.8,29.76,North,32767,0.0,0.0,85,0.00,,,0.06,Wunderground v.1.13,2013-09-14 00:55:00,
2013-09-13 21:00:00,62.3,57.7,29.76,North,360,0.0,0.0,85,0.00,,,0.06,Wunderground v.1.13,2013-09-14 01:00:00,
2013-09-13 21:10:00,62.1,57.5,29.77,North,32767,0.0,0.0,85,0.00,,,0.06,Wunderground v.1.13,2013-09-14 01:10:00,
2013-09-13 21:15:00,61.9,57.3,29.76,North,32767,0.0,0.0,85,0.00,,,0.06,Wunderground v.1.13,2013-09-14 01:15:00,
2013-09-13 21:20:00,61.8,57.2,29.76,North,360,0.0,0.0,85,0.00,,,0.06,Wunderground v.1.13,2013-09-14 01:20:00,
2013-09-13 21:25:00,61.7,57.1,29.77,North,360,0.0,0.0,85,0.00,,,0.06,Wunderground v.1.13,2013-09-14 01:25:00,
2013-09-13 21:35:00,61.4,56.8,29.77,North,32767,0.0,0.0,85,0.00,,,0.06,Wunderground v.1.13,2013-09-14 01:35:00,
2013-09-13 21:40:00,61.3,57.1,29.77,North,32767,0.0,0.0,86,0.00,,,0.06,Wunderground v.1.13,2013-09-14 01:40:00,
2013-09-13 21:45:00,61.2,57.0,29.76,North,360,0.0,0.0,86,0.00,,,0.06,Wunderground v.1.13,2013-09-14 01:45:00,
2013-09-13 21:50:00,61.0,56.8,29.77,North,32767,0.0,0.0,86,0.00,,,0.06,Wunderground v.1.13,2013-09-14 01:50:00,
2013-09-13 22:00:00,60.8,56.3,29.77,North,360,0.0,0.0,85,0.00,,,0.06,Wunderground v.1.13,2013-09-14 02:00:00,
2013-09-13 22:05:00,60.7,56.2,29.77,North,32767,0.0,0.0,85,0.00,,,0.06,Wunderground v.1.13,2013-09-14 02:05:00,
2013-09-13 22:10:00,60.5,56.3,29.78,North,32767,0.0,0.0,86,0.00,,,0.06,Wunderground v.1.13,2013-09-14 02:10:00,
2013-09-13 22:20:00,60.4,56.2,29.78,North,32767,0.0,0.0,86,0.00,,,0.06,Wunderground v.1.13,2013-09-14 02:20:00,
2013-09-13 22:25:00,60.3,56.1,29.78,North,360,0.0,0.0,86,0.00,,,0.06,Wunderground v.1.13,2013-09-14 02:25:00,
2013-09-13 22:30:00,60.2,55.7,29.78,North,360,0.0,0.0,85,0.00,,,0.06,Wunderground v.1.13,2013-09-14 02:30:00,
2013-09-13 22:35:00,60.1,55.9,29.78,North,32767,0.0,0.0,86,0.00,,,0.06,Wunderground v.1.13,2013-09-14 02:35:00,
2013-09-13 22:40:00,60.0,55.5,29.78,North,360,0.0,0.0,85,0.00,,,0.06,Wunderground v.1.13,2013-09-14 02:40:00,
2013-09-13 22:50:00,59.8,55.3,29.78,North,32767,0.0,0.0,85,0.00,,,0.06,Wunderground v.1.13,2013-09-14 02:50:00,
2013-09-13 22:55:00,59.7,55.2,29.78,North,32767,0.0,0.0,85,0.00,,,0.06,Wunderground v.1.13,2013-09-14 02:55:00,
2013-09-13 23:05:00,59.5,55.0,29.79,North,360,0.0,0.0,85,0.00,,,0.06,Wunderground v.1.13,2013-09-14 03:05:00,
2013-09-13 23:10:00,59.5,55.0,29.79,North,32767,0.0,0.0,85,0.00,,,0.06,Wunderground v.1.13,2013-09-14 03:10:00,
2013-09-13 23:15:00,59.4,54.9,29.79,North,32767,0.0,0.0,85,0.00,,,0.06,Wunderground v.1.13,2013-09-14 03:15:00,
2013-09-13 23:20:00,59.3,54.8,29.79,North,360,0.0,0.0,85,0.00,,,0.06,Wunderground v.1.13,2013-09-14 03:20:00,
2013-09-13 23:30:00,59.2,54.7,29.79,North,32767,0.0,0.0,85,0.00,,,0.06,Wunderground v.1.13,2013-09-14 03:30:00,
2013-09-13 23:35:00,59.1,54.9,29.79,North,32767,0.0,0.0,86,0.00,,,0.06,Wunderground v.1.13,2013-09-14 03:35:00,
2013-09-13 23:40:00,59.1,54.9,29.79,North,32767,0.0,0.0,86,0.00,,,0.06,Wunderground v.1.13,2013-09-14 03:40:00,
2013-09-13 23:45:00,59.1,54.9,29.79,North,32767,0.0,0.0,86,0.00,,,0.06,Wunderground v.1.13,2013-09-14 03:45:00,
2013-09-13 23:50:00,59.1,54.9,29.79,North,360,0.0,0.0,86,0.00,,,0.06,Wunderground v.1.13,2013-09-14 03:50:00,